This demonstration page uses our WeatherBlox Daily Observations layout. Learn more.

Left ArrowRight Arrow

34.02893, -84.19858

Hourly Observations for March 19, 2022

Temp ( °F °C ) Dew Point ( °F °C ) Humidity (%) Winds ( mph kmh ) Pressure ( in mb ) Visibility ( mi km ) Precip ( " mm )
12:53 am 00:53 Cloudy 58 14.4 57 13.9 97 97 S 10 17 29.89 1012 10 16 0.00 0.00
1:53 am 01:53 Cloudy 59 15 58 14.4 96 96 S 9 15 29.88 1012 10 16 0.00 0.00
2:44 am 02:44 Cloudy with Mist and Fog 59 15 59 15 100 100 SSW 13 20 29.89 1012 4 6 0.00 0.00
2:53 am 02:53 Cloudy with Mist and Fog 59 15 59 15 100 100 SSW 12 19 29.89 1012 4 6 0.00 0.00
3:26 am 03:26 Cloudy with Mist and Fog 59 15 59 15 100 100 SSW 7 11 29.88 1012 2 3 0.00 0.00
3:53 am 03:53 Cloudy with Mist and Fog 59 15 59 15 100 100 SSW 6 9 29.88 1012 2 3 0.00 0.00
4:28 am 04:28 Cloudy with Mist and Fog 60 15.6 60 15.6 100 100 S 5 7 29.87 1012 3 4 0.00 0.00
4:38 am 04:38 Cloudy with Mist and Fog 60 15.6 60 15.6 100 100 S 6 9 29.87 1012 4 6 0.00 0.00
4:53 am 04:53 Cloudy 61 16.1 60 15.6 97 97 SSW 7 11 29.87 1011 8 13 0.00 0.00
5:00 am 05:00 Cloudy 61 16.1 60 15.6 97 97 SSW 7 11 29.87 1011 8 13 0.00 0.00
5:28 am 05:28 Cloudy 61 16.1 60 15.6 97 97 SW 7 11 29.87 1011 9 14 0.00 0.00
5:53 am 05:53 Cloudy 61 16.1 60 15.6 97 97 SW 7 11 29.87 1011 9 14 0.00 0.00
6:53 am 06:53 Cloudy 61 16.1 59 15 93 93 WSW 10 17 29.89 1012 10 16 0.00 0.00
7:04 am 07:04 Cloudy 61 16.1 59 15 93 93 WSW 10 17 29.90 1012 10 16 0.00 0.00
7:14 am 07:14 Cloudy 61 16.1 58 14.4 90 90 W 12 19 29.91 1013 10 16 0.00 0.00
7:53 am 07:53 Cloudy 56 13.3 50 10 81 81 W 9 15 29.95 1014 10 16 0.00 0.00
8:46 am 08:46 Mostly Cloudy 53 11.7 44 6.7 72 72 WSW 13 20 29.99 1016 10 16 0.00 0.00
8:53 am 08:53 Partly Cloudy 53 11.7 44 6.7 72 72 WSW 12 19 29.99 1016 10 16 0.00 0.00
9:53 am 09:53 Sunny 54 12.2 45 7.2 72 72 WSW 14 22 30.01 1016 10 16 0.00 0.00
10:53 am 10:53 Sunny 55 12.8 45 7.2 69 69 W 8 13 30.04 1017 10 16 0.00 0.00
11:53 am 11:53 Sunny 57 13.9 45 7.2 64 64 W 8 13 30.04 1017 10 16 0.00 0.00
12:53 pm 12:53 Sunny 59 15 43 6.1 56 56 W 13 20 30.02 1017 10 16 0.00 0.00
1:53 pm 13:53 Sunny 61 16.1 44 6.7 54 54 W 9 15 30.01 1016 10 16 0.00 0.00
2:53 pm 14:53 Sunny 62 16.7 43 6.1 50 50 WSW 13 20 30.01 1016 10 16 0.00 0.00
3:53 pm 15:53 Sunny 64 17.8 42 5.6 45 45 WSW 12 19 29.99 1016 10 16 0.00 0.00
4:53 pm 16:53 Sunny 65 18.3 43 6.1 45 45 W 13 20 29.99 1016 10 16 0.00 0.00
5:53 pm 17:53 Sunny 62 16.7 42 5.6 48 48 W 12 19 29.99 1016 10 16 0.00 0.00
6:53 pm 18:53 Sunny 59 15 41 5 51 51 NW 13 20 30.02 1017 10 16 0.00 0.00
7:53 pm 19:53 Clear 56 13.3 40 4.4 55 55 WNW 10 17 30.06 1018 10 16 0.00 0.00
8:53 pm 20:53 Clear 55 12.8 39 3.9 55 55 WNW 13 20 30.08 1019 10 16 0.00 0.00
9:53 pm 21:53 Clear 52 11.1 39 3.9 61 61 NW 12 19 30.11 1020 10 16 0.00 0.00
10:53 pm 22:53 Clear 50 10 38 3.3 63 63 NW 12 19 30.13 1020 10 16 0.00 0.00
11:53 pm 23:53 Clear 48 8.9 37 2.8 66 66 NW 9 15 30.14 1021 10 16 0.00 0.00

Powered by AerisWeather